Temperature
18 18 18 17 17 17 17 16 16 16 16 15 15 15 15 15 14 14 14 14 14 14 14 14 14 14 14 14 14 14 13 13 13 12 12 12 13 13 13 13 13 13 13
18 18 18 17 17 17 17 16 16 16 16 15 15 15 15 14 14 14 14 14 14 14 14 14 14 14 14 14 13 13 13 13 13 12 12 12 12 12 12 13 13 13 13
18 18 18 17 17 17 17 16 16 16 16 15 15 15 15 14 14 14 14 14 14 14 13 13 13 13 13 13 13 13 13 13 12 12 12 12 12 12 12 12 12 12 12
18 18 18 17 17 17 17 16 16 16 16 15 15 15 15 14 14 14 14 14 13 13 13 13 13 13 13 13 13 12 12 12 12 12 12 12 12 12 12 12 12 12 12
18 18 18 17 17 17 17 16 16 16 16 15 15 15 14 14 14 14 14 14 13 13 13 13 13 13 12 12 12 12 12 12 12 12 12 11 11 11 11 11 11 11 11
18 18 18 17 17 17 17 16 16 16 16 15 15 15 14 14 14 14 14 13 13 13 13 13 12 12 12 12 12 12 12 12 12 11 11 11 11 11 11 10 10 10 11
18 18 18 17 17 17 16 16 16 16 15 15 15 15 14 14 14 13 13 13 13 13 13 12 12 12 12 12 12 12 11 11 11 11 11 11 10 10 10 10 10 10 10
18 18 18 17 17 17 16 16 16 16 15 15 15 14 14 14 13 13 13 13 13 13 12 12 12 12 12 12 12 11 11 11 11 11 10 10 10 10 9 9 9 9 9
18 18 18 17 17 17 16 16 16 15 15 15 15 14 14 14 13 13 13 13 13 12 12 12 12 12 12 11 11 11 11 11 10 10 10 10 9 9 9 9 9 9 9
19 18 18 17 17 17 16 16 16 15 15 15 14 14 14 13 13 13 13 12 12 12 12 12 12 11 11 11 11 11 11 11 10 10 10 10 10 9 9 9 8 8 8
19 18 18 17 17 16 16 16 15 15 15 14 14 14 14 13 13 13 12 12 12 12 12 12 11 11 11 11 11 10 10 10 10 10 10 10 9 9 9 8 8 8 7
18 18 17 17 16 16 16 15 15 15 14 14 14 14 13 13 13 12 12 12 12 12 12 11 11 11 11 11 10 10 10 10 9 9 9 9 9 9 8 8 8 7 7
18 18 17 17 16 16 16 15 15 14 14 14 14 14 13 13 13 12 12 12 11 11 11 11 11 10 10 10 10 10 9 9 9 9 9 8 8 8 8 7 7 7 7
18 17 17 16 16 16 15 15 15 14 14 14 14 14 13 13 13 12 12 12 11 11 11 11 10 10 10 10 10 9 9 9 8 8 8 8 8 7 7 7 7 7 7
17 17 17 16 16 15 15 15 15 15 14 14 14 14 13 13 13 12 12 12 11 11 11 10 10 10 10 10 9 9 9 8 8 8 8 7 7 7 7 7 6 6 6
17 17 16 16 16 15 15 14 14 14 14 13 13 13 13 12 12 12 11 11 11 10 10 10 10 10 9 9 9 9 8 8 8 8 7 7 7 7 6 6 6 6 5
17 16 16 16 15 15 15 14 14 14 13 13 13 12 12 12 12 11 11 11 10 10 10 10 10 9 9 9 8 8 8 8 7 7 7 7 6 6 6 5 5 5 5
16 16 16 16 15 15 14 14 14 14 13 13 13 12 12 12 11 11 10 10 10 9 9 9 9 9 9 8 8 8 8 7 7 7 7 6 6 6 5 5 5 4 4
16 15 15 15 15 14 14 14 14 13 13 13 13 12 12 11 11 10 10 10 10 9 9 9 9 8 8 8 8 7 7 7 7 6 6 6 6 5 5 5 4 4 4
15 15 15 14 14 14 13 13 13 13 12 12 12 12 11 11 10 10 10 10 10 9 9 9 8 8 8 8 7 7 7 6 6 6 6 6 5 5 5 4 4 4 3
15 14 14 14 13 13 13 13 12 12 12 12 12 12 11 11 10 10 10 10 9 9 9 9 8 8 8 7 7 7 6 6 6 6 5 5 5 4 4 4 3 3 3
14 14 13 13 13 13 12 12 12 12 12 11 11 11 11 10 10 10 9 9 9 9 9 8 8 8 7 7 7 6 6 6 5 5 5 5 4 4 4 3 3 3 2
13 13 13 13 12 12 12 12 11 11 11 11 11 10 10 10 9 9 9 9 9 8 8 8 7 7 7 7 6 6 5 5 5 5 4 4 4 3 3 3 3 2 2
12 12 12 12 12 11 11 11 11 10 10 10 10 10 9 9 9 9 8 8 8 8 7 7 7 7 6 6 6 5 5 5 4 4 4 3 3 3 3 2 2 2 1
12 11 11 11 11 11 10 10 10 10 9 9 9 9 9 8 8 8 8 8 7 7 7 6 6 6 6 5 5 5 5 4 4 4 3 3 3 2 2 2 1 1 1
11 11 10 10 10 10 9 9 9 9 9 8 8 8 8 8 8 7 7 7 7 7 6 6 6 5 5 5 5 4 4 4 3 3 3 2 2 2 2 1 1 1 0
Wind_Speed
7 6 7 6 5 5 5 5 5 4 4 4 4 4 4 4 4 5 4 5 6 5 5 6 5 4 4 4 4 4 4 4 4 1 2 3 5 6 9 12 12 13 13
8 7 7 6 6 6 5 5 5 5 4 4 4 5 4 4 4 5 5 5 6 6 5 5 5 5 5 5 5 5 4 3 3 2 3 4 4 5 5 6 10 11 12
8 8 7 7 7 6 6 5 5 6 5 5 5 5 4 4 5 5 5 5 5 5 4 5 4 6 5 4 5 5 3 4 3 2 2 3 3 3 4 5 6 7 10
9 9 8 8 8 7 6 6 6 6 6 6 5 5 4 4 4 5 5 5 5 4 4 4 4 4 4 4 4 4 4 4 4 3 3 3 3 3 3 4 5 5 5
10 9 9 7 7 7 7 6 6 6 6 6 5 4 4 4 4 5 5 5 5 4 4 3 3 4 5 4 4 3 4 3 3 3 2 3 3 3 4 3 4 4 4
11 10 8 8 7 7 7 7 6 6 5 5 5 5 4 2 5 7 6 5 5 4 3 2 3 4 5 6 6 5 4 3 2 1 1 1 3 3 2 2 3 4 4
11 10 9 9 9 8 8 7 7 6 5 5 5 5 4 3 5 7 8 5 4 3 3 2 2 2 4 3 5 6 5 4 2 3 1 2 2 2 2 3 3 2 3
10 10 10 10 9 8 7 7 6 5 5 5 4 5 4 3 6 7 8 5 4 3 2 2 2 1 1 3 3 3 3 3 1 1 2 3 3 3 2 2 3 3 4
11 11 11 11 10 9 9 7 5 5 5 4 4 5 5 3 5 7 8 4 3 2 1 1 2 2 2 3 3 2 2 3 4 3 3 3 5 6 4 1 2 2 4
13 12 11 11 11 11 10 7 5 5 5 5 4 4 5 4 5 7 7 4 3 2 0 0 2 2 2 2 3 2 1 3 3 4 5 6 6 6 6 1 1 1 2
11 10 10 10 10 10 8 6 6 6 6 5 4 3 4 5 5 7 7 4 4 3 2 1 2 2 1 2 2 2 3 3 2 2 3 4 4 4 4 4 2 2 2
11 11 10 10 9 8 8 7 6 7 6 5 4 3 2 3 5 6 7 7 6 4 3 3 3 4 2 2 2 3 4 3 1 1 2 3 3 4 4 5 6 5 5
12 11 10 10 8 9 9 9 6 6 6 5 5 5 4 3 4 7 7 7 7 4 4 5 5 5 3 3 4 4 3 1 1 1 3 4 3 4 4 4 5 6 7
12 11 10 10 9 8 8 8 8 8 7 7 7 6 5 4 4 4 4 4 5 4 3 4 4 4 3 3 4 3 2 2 3 3 4 4 3 3 3 3 3 3 4
11 10 10 9 10 9 8 8 9 9 10 10 8 8 7 7 9 10 7 6 5 5 3 1 1 1 2 3 3 3 3 2 3 3 4 4 4 4 4 3 3 2 3
10 9 8 8 8 7 7 5 7 7 10 12 11 10 8 9 9 10 10 10 10 8 4 3 4 4 5 5 5 4 4 4 5 5 4 5 5 5 5 4 3 3 5
11 10 8 8 8 8 8 8 6 4 6 9 11 11 11 10 10 10 10 10 10 8 5 5 6 6 6 6 6 5 5 6 5 5 5 5 5 5 5 5 5 5 6
9 10 9 9 9 9 9 8 8 7 6 5 7 11 12 12 11 11 10 7 4 5 5 6 7 7 7 7 7 6 6 6 5 5 6 6 6 5 5 6 6 6 7
8 7 7 7 7 7 7 7 6 7 7 5 4 5 9 10 10 10 8 6 6 7 7 7 7 7 7 7 7 7 7 6 6 6 6 6 6 6 6 7 7 8 8
6 8 8 6 6 6 6 7 7 7 7 6 7 7 5 4 5 6 7 6 7 7 8 8 8 7 7 7 7 6 7 7 7 6 7 7 6 6 7 8 7 7 7
5 6 8 7 6 7 7 8 8 7 7 8 8 8 9 7 8 8 8 8 8 9 8 8 8 7 7 6 6 7 8 7 7 7 7 7 6 6 6 7 7 7 7
4 5 6 6 6 6 6 7 7 7 8 8 6 6 10 7 7 7 8 8 8 8 8 7 7 7 7 7 7 7 7 7 7 7 7 6 6 6 7 7 7 7 7
4 4 5 5 6 7 7 6 6 6 6 7 6 5 6 7 7 7 8 7 7 7 6 6 7 7 8 9 9 8 8 8 7 7 7 6 6 7 7 7 8 9 9
4 4 5 5 5 5 6 6 6 6 6 6 6 6 7 7 7 8 7 6 6 6 6 7 8 9 10 10 10 11 12 12 11 9 8 7 7 7 7 7 8 9 10
3 4 4 5 5 5 5 6 6 6 6 7 7 6 6 7 7 7 7 6 7 7 8 8 8 10 12 12 12 12 14 14 13 11 9 7 8 8 8 8 8 9 10
3 3 4 4 5 5 5 6 6 6 6 6 6 6 6 6 7 6 6 6 6 7 7 8 10 11 12 12 13 15 15 15 15 14 11 7 7 8 8 7 9 9 10
Wind_Direction
165 163 157 154 147 138 135 138 134 125 120 121 112 100 91 85 87 88 82 81 75 62 59 68 59 52 57 47 55 64 69 97 112 343 337 344 10 13 11 19 20 19 17
166 160 160 155 144 139 139 137 131 127 123 119 111 103 97 93 93 96 93 86 86 80 71 69 56 63 54 47 57 61 64 80 115 74 351 357 5 359 4 10 14 17 17
160 157 156 156 153 152 149 142 133 130 124 113 110 109 104 101 98 100 104 99 95 95 92 86 73 74 65 57 62 62 56 62 74 85 9 350 350 356 0 360 5 4 12
161 160 162 167 165 161 153 145 141 136 129 122 117 116 114 108 106 105 106 102 95 87 85 88 87 90 98 88 77 71 72 63 56 60 27 355 344 338 6 358 351 346 348
164 166 174 169 158 152 148 145 139 135 136 131 119 111 111 116 123 120 113 110 103 85 72 73 79 90 95 104 100 94 85 74 61 54 24 2 347 351 348 335 341 329 328
171 175 169 159 155 155 153 145 136 131 131 127 127 127 120 121 128 129 124 115 115 110 95 69 56 68 78 84 90 91 97 100 101 87 28 346 314 311 315 335 341 353 332
174 172 168 165 162 162 157 146 144 144 138 132 133 129 130 145 138 130 125 121 118 123 126 116 86 77 83 83 68 60 51 58 102 153 161 256 273 281 313 331 329 321 289
173 173 172 166 164 160 156 157 155 149 147 148 149 148 143 156 140 129 122 109 111 118 137 149 141 134 136 119 89 51 22 4 0 97 192 237 248 262 239 250 274 297 294
177 178 175 169 165 163 167 169 162 152 152 155 156 154 152 168 155 141 128 118 114 114 138 147 151 160 183 136 110 74 356 330 337 341 327 323 326 326 330 354 343 351 324
185 181 175 171 170 173 174 169 161 156 160 157 157 164 166 178 179 162 146 135 135 141 119 234 184 186 202 162 146 152 290 296 314 333 341 340 339 336 336 326 220 287 296
177 168 168 171 173 172 166 161 156 154 152 157 163 175 177 184 187 178 168 158 168 171 186 228 252 235 212 195 183 200 245 269 293 310 319 321 329 331 327 320 270 204 235
161 165 169 170 173 168 160 161 160 157 159 168 171 190 214 207 199 198 190 187 180 176 203 220 240 251 251 253 246 260 275 297 301 313 314 309 310 307 302 305 299 279 253
164 170 172 171 172 165 167 169 165 168 174 185 186 200 221 224 222 212 202 198 194 196 219 226 232 244 256 270 279 282 289 275 255 271 274 273 269 273 286 301 304 300 293
171 174 172 173 174 173 176 178 179 185 189 194 199 208 216 220 223 219 216 218 213 219 233 248 250 250 247 260 281 289 265 235 226 237 254 264 273 280 278 276 283 293 302
171 174 176 179 180 184 188 193 194 201 197 196 205 203 202 219 226 212 204 213 214 216 205 218 242 257 263 271 273 268 260 258 251 245 250 263 270 270 273 272 265 274 278
172 178 182 182 183 185 188 203 222 213 213 211 208 203 215 222 219 212 215 219 218 207 185 211 230 235 241 247 253 261 259 253 250 248 249 251 257 262 269 272 262 266 277
181 184 184 185 186 188 189 194 210 237 233 222 217 211 213 215 215 213 214 217 217 197 201 224 232 236 240 242 242 243 248 250 246 244 249 252 254 257 262 269 270 272 275
184 186 186 191 192 193 197 201 201 202 212 233 233 225 221 219 218 216 212 201 218 212 219 229 236 239 240 241 241 243 248 252 249 248 249 252 250 252 259 264 265 265 273
184 187 189 190 192 195 196 197 202 207 213 219 223 232 227 223 222 222 204 205 218 226 229 235 237 239 241 241 242 243 244 247 248 244 247 248 249 249 256 259 261 264 267
192 190 183 185 190 194 195 198 204 210 215 218 223 224 209 195 214 222 218 220 225 230 231 235 239 240 240 241 242 243 246 248 248 246 246 247 247 246 252 257 259 264 267
192 194 188 188 196 200 201 206 209 211 217 224 229 223 203 207 218 222 223 225 229 232 234 236 238 239 240 241 243 245 246 249 246 246 247 248 248 250 252 254 259 263 268
195 196 198 201 202 203 205 208 208 213 220 225 234 226 212 215 222 227 229 232 233 233 232 231 236 236 233 233 236 240 246 250 250 247 247 247 246 249 253 257 262 265 268
198 201 204 207 208 207 207 209 210 214 221 225 225 222 218 221 226 229 233 236 235 237 239 235 235 240 244 242 238 231 235 241 243 242 242 246 248 250 252 256 261 269 272
204 207 211 213 212 211 212 216 217 219 221 224 226 225 224 224 227 229 232 234 234 238 240 238 239 242 244 246 245 241 240 244 245 242 237 243 249 254 255 259 263 267 272
219 216 217 217 217 218 220 223 224 224 227 229 231 233 233 232 234 237 236 235 237 239 242 243 245 246 246 244 244 244 246 248 249 248 243 239 247 251 256 261 266 271 273
238 229 225 222 221 222 223 227 230 231 232 233 233 233 232 233 236 238 238 237 239 241 246 249 249 247 248 247 247 248 251 251 252 253 249 240 244 252 256 263 267 271 276
Height
1563 1565 1566 1568 1569 1569 1570 1570 1571 1571 1571 1571 1571 1570 1570 1570 1569 1569 1569 1568 1568 1567 1567 1567 1566 1566 1565 1565 1565 1564 1564 1564 1563 1563 1563 1562 1560 1559 1557 1556 1554 1553 1552
1562 1563 1565 1567 1568 1569 1570 1570 1570 1571 1571 1571 1571 1571 1570 1570 1570 1570 1570 1569 1569 1568 1568 1568 1567 1567 1566 1566 1565 1565 1565 1564 1564 1563 1562 1561 1560 1559 1557 1556 1554 1553 1552
1560 1562 1564 1565 1567 1568 1569 1570 1570 1570 1571 1571 1571 1571 1571 1571 1571 1570 1570 1570 1570 1569 1569 1568 1568 1567 1567 1566 1566 1566 1565 1565 1564 1563 1562 1561 1560 1559 1557 1556 1554 1553 1551
1558 1560 1562 1564 1565 1567 1568 1569 1569 1570 1570 1571 1571 1571 1571 1571 1571 1571 1571 1570 1570 1570 1569 1569 1568 1568 1567 1567 1566 1566 1565 1565 1564 1563 1562 1561 1559 1558 1557 1555 1553 1552 1550
1555 1557 1560 1562 1564 1565 1567 1567 1568 1569 1570 1570 1571 1571 1571 1571 1571 1571 1571 1570 1570 1570 1569 1569 1568 1568 1568 1567 1567 1566 1565 1564 1563 1562 1561 1560 1558 1557 1555 1554 1552 1550 1549
1552 1555 1558 1560 1562 1564 1565 1566 1567 1568 1568 1569 1570 1570 1570 1570 1570 1570 1570 1570 1570 1569 1569 1569 1568 1568 1567 1567 1566 1566 1565 1564 1562 1561 1560 1559 1557 1556 1555 1553 1551 1548 1546
1549 1552 1555 1557 1560 1561 1563 1564 1565 1566 1567 1567 1568 1569 1569 1569 1569 1569 1569 1569 1569 1569 1568 1568 1568 1567 1567 1566 1565 1565 1564 1563 1562 1561 1559 1558 1556 1555 1553 1551 1549 1548 1546
1546 1549 1552 1554 1557 1559 1561 1562 1563 1564 1565 1566 1566 1567 1567 1568 1568 1568 1568 1568 1568 1568 1567 1567 1566 1566 1566 1565 1564 1563 1562 1561 1560 1559 1558 1556 1555 1553 1552 1550 1548 1546 1544
1542 1545 1548 1551 1553 1556 1557 1559 1560 1562 1563 1563 1564 1565 1565 1566 1566 1566 1566 1566 1566 1566 1566 1565 1565 1564 1564 1563 1562 1561 1560 1559 1558 1557 1556 1554 1553 1551 1550 1548 1545 1543 1540
1538 1541 1545 1548 1550 1552 1554 1556 1558 1559 1560 1561 1562 1562 1563 1563 1564 1564 1564 1564 1564 1564 1564 1563 1563 1562 1562 1561 1560 1559 1558 1557 1556 1555 1554 1552 1551 1549 1547 1545 1543 1541 1538
1535 1539 1542 1544 1547 1549 1551 1553 1555 1556 1557 1558 1559 1560 1560 1561 1561 1561 1561 1561 1561 1561 1561 1561 1560 1560 1559 1559 1558 1557 1555 1554 1553 1552 1550 1549 1548 1546 1544 1543 1541 1538 1536
1532 1535 1538 1541 1544 1546 1548 1550 1552 1553 1554 1555 1556 1556 1557 1558 1558 1558 1559 1559 1559 1558 1558 1558 1558 1557 1557 1556 1555 1554 1553 1551 1550 1548 1547 1545 1544 1542 1541 1539 1537 1535 1533
1529 1532 1535 1538 1540 1542 1544 1546 1548 1549 1550 1551 1552 1553 1553 1554 1555 1555 1555 1555 1555 1555 1555 1555 1554 1554 1553 1552 1551 1550 1549 1548 1546 1545 1543 1542 1540 1538 1536 1535 1533 1531 1529
1525 1528 1531 1533 1536 1538 1540 1542 1543 1544 1546 1547 1548 1548 1549 1550 1551 1551 1551 1552 1552 1552 1551 1551 1551 1550 1549 1548 1547 1546 1545 1544 1542 1541 1539 1538 1536 1534 1532 1530 1527 1525 1522
1521 1524 1527 1529 1531 1534 1535 1537 1539 1540 1542 1543 1544 1545 1545 1545 1546 1547 1548 1547 1547 1547 1547 1546 1546 1545 1544 1543 1543 1542 1541 1539 1538 1536 1534 1533 1531 1529 1527 1525 1522 1519 1517
1517 1519 1522 1524 1527 1529 1531 1533 1535 1537 1538 1539 1540 1541 1541 1542 1543 1543 1543 1543 1543 1543 1542 1541 1540 1540 1539 1538 1537 1536 1535 1534 1533 1531 1529 1528 1526 1523 1521 1519 1517 1514 1511
1513 1515 1517 1520 1522 1524 1526 1527 1529 1531 1532 1533 1534 1535 1535 1536 1537 1538 1538 1538 1538 1538 1536 1535 1534 1534 1533 1533 1532 1531 1530 1529 1527 1526 1524 1522 1520 1518 1516 1513 1511 1508 1505
1509 1511 1513 1515 1516 1518 1520 1522 1523 1525 1526 1526 1528 1529 1530 1530 1531 1532 1532 1532 1531 1530 1529 1529 1528 1528 1527 1526 1526 1524 1523 1522 1521 1519 1518 1516 1514 1512 1510 1507 1505 1502 1499
1505 1507 1508 1510 1512 1513 1515 1516 1518 1519 1520 1521 1522 1523 1524 1524 1525 1525 1525 1525 1524 1523 1523 1523 1522 1522 1521 1520 1519 1518 1517 1515 1514 1513 1511 1509 1508 1505 1503 1501 1498 1495 1492
1501 1502 1504 1505 1506 1508 1509 1510 1511 1512 1513 1514 1515 1516 1517 1518 1517 1517 1518 1517 1517 1517 1516 1516 1515 1515 1514 1513 1512 1511 1509 1508 1507 1505 1503 1502 1500 1498 1496 1493 1491 1488 1485
1496 1498 1499 1500 1501 1502 1503 1504 1505 1506 1507 1507 1508 1509 1510 1510 1510 1510 1510 1510 1510 1510 1509 1509 1508 1508 1507 1506 1505 1503 1502 1500 1499 1498 1496 1494 1493 1491 1488 1486 1483 1481 1477
1492 1493 1493 1494 1495 1496 1497 1498 1499 1500 1500 1501 1501 1503 1503 1503 1503 1503 1503 1503 1503 1503 1502 1502 1501 1500 1499 1498 1497 1496 1494 1493 1492 1490 1488 1486 1484 1482 1480 1478 1475 1472 1469
1487 1488 1488 1489 1489 1490 1491 1491 1492 1493 1493 1494 1495 1495 1496 1495 1496 1496 1496 1496 1496 1495 1495 1494 1493 1492 1492 1491 1490 1488 1487 1485 1484 1482 1481 1478 1476 1474 1472 1469 1467 1464 1461
1482 1483 1483 1483 1484 1484 1484 1485 1485 1486 1487 1487 1488 1488 1488 1488 1488 1488 1488 1488 1488 1488 1487 1486 1485 1484 1483 1482 1481 1480 1479 1478 1476 1475 1473 1471 1468 1466 1464 1461 1458 1455 1452
1477 1477 1477 1478 1478 1478 1478 1479 1479 1479 1479 1480 1480 1480 1481 1481 1481 1481 1481 1480 1480 1480 1479 1478 1477 1476 1475 1474 1473 1472 1471 1470 1468 1466 1464 1462 1460 1457 1455 1452 1449 1446 1443
1472 1472 1472 1472 1472 1472 1472 1472 1472 1472 1472 1473 1473 1473 1473 1473 1473 1473 1473 1472 1472 1471 1470 1469 1469 1468 1467 1466 1465 1463 1462 1461 1459 1458 1456 1453 1451 1448 1446 1443 1440 1437 1434